Newark, OH

3:15 AM EDT on September 26, 2016 (GMT -0400)
Newark Heath

Weather History for KVTA - June, 2014

Change the Weather History Date:

Monday, June 9, 2014

  Actual Average Record
Temperature  
Mean Temperature 64 °F -  
Max Temperature 75 °F 80 °F 94 °F (1953)
Min Temperature 55 °F 57 °F 39 °F (1949)
Degree Days  
Heating Degree Days 1    
Growing Degree Days 14 (Base 50)    
Moisture  
Dew Point 56 °F    
Average Humidity 77    
Maximum Humidity 94    
Minimum Humidity 53    
Precipitation  
Precipitation 0.00 in - - ()
Sea Level Pressure  
Sea Level Pressure 29.95 in    
Wind  
Wind Speed 2 mph (NNE)    
Max Wind Speed 9 mph    
Max Gust Speed -    
Visibility 8 miles    
Events      
Averages and records for this station are not official NWS values.
T = Trace of Precipitation, MM = Missing Value Source: NWS Daily Summary

Daily Weather History Graph

Daily Weather History Graph

Search for Another Location

Airport or City:

Trip Planner

Search our weather history database for the weather conditions in past years. The results will help you decide how hot, cold, wet, or windy it might be!

Date:

Astronomy

Jun. 09, 2014 Rise Set
Actual Time 6:00 AM EDT 8:57 PM EDT
Civil Twilight 5:28 AM EDT 9:30 PM EDT
Nautical Twilight 4:46 AM EDT 10:11 PM EDT
Astronomical Twilight 3:59 AM EDT 10:59 PM EDT
Moon 5:17 PM EDT (6/9) 3:27 AM EDT (6/9)
Length of Visible Light 16h 02m
Length of Day
14h 57m
Waxing Gibbous, 85% of the Moon is Illuminated
Jun 9
Waxing Gibbous
Jun 13
Full
Jun 19
Last Quarter
Jun 27
New
Jul 5
First Quarter

Hourly Weather History & Observations

Time (EDT) Temp. Dew Point Humidity Pressure Visibility Wind Dir Wind Speed Gust Speed Precip Events Conditions
12:54 AM 57.0 °F 55.0 °F 93% 29.96 in 7.0 mi Calm Calm - N/A   Clear
1:15 AM 57.0 °F 54.0 °F 89% 29.97 in 2.0 mi Calm Calm - N/A   Clear
1:26 AM 57.0 °F 55.0 °F 93% 29.97 in 4.0 mi Calm Calm - N/A   Clear
1:50 AM 57.2 °F 55.4 °F 94% 29.97 in 2.5 mi Calm Calm - N/A   Clear
1:54 AM 57.0 °F 55.0 °F 93% 29.96 in 3.0 mi Calm Calm - N/A   Clear
2:54 AM 55.9 °F 54.0 °F 93% 29.96 in 5.0 mi Calm Calm - N/A   Clear
3:54 AM 57.0 °F 54.0 °F 89% 29.95 in 8.0 mi Calm Calm - N/A   Clear
4:54 AM 57.0 °F 53.1 °F 87% 29.94 in 10.0 mi North 3.5 mph - N/A   Clear
5:54 AM 55.9 °F 53.1 °F 90% 29.95 in 7.0 mi Calm Calm - N/A   Clear
6:54 AM 57.0 °F 54.0 °F 89% 29.96 in 5.0 mi Calm Calm - N/A   Clear
7:54 AM 59.0 °F 55.0 °F 87% 29.97 in 6.0 mi Calm Calm - N/A   Overcast
8:54 AM 63.0 °F 55.9 °F 78% 29.98 in 10.0 mi NE 3.5 mph - N/A   Scattered Clouds
9:54 AM 64.9 °F 55.0 °F 70% 29.98 in 10.0 mi NNE 6.9 mph - N/A   Overcast
11:54 AM 71.1 °F 55.9 °F 59% 29.96 in 10.0 mi North 9.2 mph - N/A   Partly Cloudy
12:54 PM 71.1 °F 55.9 °F 59% 29.96 in 10.0 mi North 5.8 mph - N/A   Mostly Cloudy
1:54 PM 71.1 °F 57.0 °F 61% 29.96 in 10.0 mi NNW 5.8 mph - N/A   Scattered Clouds
4:54 PM 73.0 °F 55.9 °F 55% 29.91 in 10.0 mi Calm Calm - N/A   Scattered Clouds
5:54 PM 73.9 °F 55.9 °F 53% 29.90 in 10.0 mi East 8.1 mph - N/A   Partly Cloudy
6:54 PM 73.0 °F 57.0 °F 57% 29.90 in 10.0 mi East 5.8 mph - N/A   Mostly Cloudy
7:54 PM 73.0 °F 55.9 °F 55% 29.91 in 10.0 mi Calm Calm - N/A   Overcast
8:54 PM 71.1 °F 57.9 °F 63% 29.91 in 10.0 mi SSE 3.5 mph - N/A   Overcast
9:54 PM 68.0 °F 61.0 °F 78% 29.92 in 10.0 mi SSW 5.8 mph - N/A   Overcast
10:54 PM 66.9 °F 61.0 °F 81% 29.94 in 8.0 mi North 3.5 mph - N/A   Overcast
11:54 PM 64.9 °F 61.0 °F 87% 29.93 in 7.0 mi Calm Calm - N/A   Mostly Cloudy